TOM55C EGKK-LGKF

Flight info

Callsign TOM55C
Flight time 3h 8m
Altitude 35000
Route ODVIK Y311 DVR UL9 KONAN UL607 REMBA LIRSU ULNOK L607 TEDGO UTABA BEMKI ELMEM GIRIS SUMIR ROKIB VIE LUPAL LATAN UM872 ASTUS
Aircraft B738/M-SDE2E3FGHIRWXY/LB1

Departure

Time 2026-05-05 11:45
Airport London Gatwick Airport (EGKK)

Arrival

Time 2026-05-05 14:53
Airport Kefallinia Airport (LGKF)
Time Latitude Longitude Altitude Speed Heading
2026-05-05 11:19 51.15860 -0.17954 204 ft 0 kts 78°
2026-05-05 11:28 51.15858 -0.17975 204 ft 4 kts 78°
2026-05-05 11:29 51.15852 -0.18017 204 ft 4 kts 78°
2026-05-05 11:29 51.15847 -0.18053 216 ft 4 kts 92°
2026-05-05 11:29 51.15856 -0.18084 204 ft 4 kts 153°
2026-05-05 11:29 51.15875 -0.18095 204 ft 1 kts 167°
2026-05-05 11:30 51.15879 -0.18096 204 ft 0 kts 167°
2026-05-05 11:32 51.15874 -0.18094 204 ft 2 kts 167°
2026-05-05 11:33 51.15849 -0.18086 213 ft 5 kts 167°
2026-05-05 11:33 51.15803 -0.18069 204 ft 8 kts 167°
2026-05-05 11:33 51.15740 -0.18047 215 ft 7 kts 167°
2026-05-05 11:33 51.15695 -0.18061 204 ft 7 kts 223°
2026-05-05 11:34 51.15676 -0.18135 216 ft 8 kts 257°
2026-05-05 11:34 51.15663 -0.18231 215 ft 10 kts 257°
2026-05-05 11:34 51.15646 -0.18355 204 ft 13 kts 257°
2026-05-05 11:34 51.15626 -0.18500 204 ft 14 kts 257°
2026-05-05 11:35 51.15605 -0.18651 208 ft 14 kts 258°
2026-05-05 11:35 51.15584 -0.18787 211 ft 11 kts 245°
2026-05-05 11:35 51.15517 -0.18821 210 ft 11 kts 168°
2026-05-05 11:35 51.15441 -0.18794 211 ft 11 kts 168°
2026-05-05 11:36 51.15361 -0.18766 204 ft 12 kts 168°
2026-05-05 11:36 51.15280 -0.18738 204 ft 12 kts 168°
2026-05-05 11:36 51.15199 -0.18711 204 ft 12 kts 168°
2026-05-05 11:36 51.15132 -0.18745 206 ft 11 kts 243°
2026-05-05 11:37 51.15112 -0.18873 215 ft 13 kts 257°
2026-05-05 11:37 51.15092 -0.19023 209 ft 15 kts 257°
2026-05-05 11:37 51.15068 -0.19196 209 ft 17 kts 258°
2026-05-05 11:37 51.15042 -0.19381 213 ft 17 kts 257°
2026-05-05 11:38 51.15018 -0.19559 215 ft 16 kts 258°
2026-05-05 11:38 51.14994 -0.19731 204 ft 16 kts 257°
2026-05-05 11:38 51.14971 -0.19897 207 ft 15 kts 257°
2026-05-05 11:38 51.14949 -0.20058 204 ft 15 kts 257°
2026-05-05 11:39 51.14925 -0.20232 208 ft 17 kts 257°
2026-05-05 11:39 51.14898 -0.20426 213 ft 18 kts 257°
2026-05-05 11:39 51.14871 -0.20618 211 ft 17 kts 257°
2026-05-05 11:39 51.14846 -0.20801 211 ft 17 kts 257°
2026-05-05 11:40 51.14821 -0.20978 209 ft 15 kts 257°
2026-05-05 11:40 51.14801 -0.21117 204 ft 12 kts 252°
2026-05-05 11:40 51.14776 -0.21243 204 ft 12 kts 256°
2026-05-05 11:40 51.14757 -0.21366 206 ft 11 kts 248°
2026-05-05 11:41 51.14697 -0.21401 206 ft 9 kts 166°
2026-05-05 11:41 51.14652 -0.21348 213 ft 7 kts 145°
2026-05-05 11:41 51.14622 -0.21333 204 ft 1 kts 166°
2026-05-05 11:41 51.14620 -0.21332 204 ft 0 kts 166°
2026-05-05 11:42 51.14608 -0.21327 204 ft 4 kts 166°
2026-05-05 11:43 51.14572 -0.21310 205 ft 6 kts 155°
2026-05-05 11:43 51.14543 -0.21269 205 ft 6 kts 126°
2026-05-05 11:43 51.14527 -0.21215 215 ft 6 kts 112°
2026-05-05 11:43 51.14523 -0.21155 214 ft 5 kts 80°
2026-05-05 11:44 51.14531 -0.21097 211 ft 6 kts 77°
2026-05-05 11:44 51.14560 -0.20886 209 ft 47 kts 78°
2026-05-05 11:44 51.14686 -0.19977 215 ft 120 kts 77°
2026-05-05 11:44 51.14903 -0.18355 264 ft 173 kts 78°
2026-05-05 11:45 51.15148 -0.16342 808 ft 195 kts 78°
2026-05-05 11:45 51.15370 -0.14168 1516 ft 200 kts 79°
2026-05-05 11:45 51.15651 -0.12060 2088 ft 191 kts 75°
2026-05-05 11:45 51.15981 -0.09992 2635 ft 201 kts 73°
2026-05-05 11:46 51.16341 -0.07635 2948 ft 234 kts 74°
2026-05-05 11:46 51.16717 -0.05093 3685 ft 237 kts 74°
2026-05-05 11:46 51.16921 -0.02531 4224 ft 233 kts 88°
2026-05-05 11:46 51.16884 0.00173 4745 ft 257 kts 89°
2026-05-05 11:47 51.16810 0.03070 5276 ft 264 kts 90°
2026-05-05 11:47 51.16745 0.05943 5759 ft 262 kts 90°
2026-05-05 11:47 51.16681 0.08835 6250 ft 262 kts 90°
2026-05-05 11:47 51.16622 0.11763 6738 ft 267 kts 90°
2026-05-05 11:48 51.16542 0.17674 7753 ft 268 kts 89°
2026-05-05 11:48 51.16554 0.20660 8262 ft 272 kts 88°
2026-05-05 11:48 51.16567 0.23713 8785 ft 279 kts 89°
2026-05-05 11:49 51.16576 0.26816 9277 ft 280 kts 89°
2026-05-05 11:49 51.16580 0.29929 9778 ft 281 kts 89°
2026-05-05 11:49 51.16585 0.33012 10263 ft 283 kts 89°
2026-05-05 11:49 51.16590 0.36197 10786 ft 290 kts 89°
2026-05-05 11:50 51.16594 0.39442 11310 ft 301 kts 89°
2026-05-05 11:50 51.16595 0.42872 11886 ft 311 kts 89°
2026-05-05 11:50 51.16595 0.46331 12438 ft 320 kts 89°
2026-05-05 11:50 51.16594 0.49918 12998 ft 329 kts 90°
2026-05-05 11:51 51.16592 0.53611 13562 ft 337 kts 90°
2026-05-05 11:51 51.16545 0.57386 14118 ft 344 kts 92°
2026-05-05 11:51 51.16448 0.61255 14540 ft 356 kts 92°
2026-05-05 11:51 51.16333 0.65231 15045 ft 364 kts 92°
2026-05-05 11:52 51.16214 0.69292 15705 ft 367 kts 92°
2026-05-05 11:52 51.16096 0.73362 16400 ft 369 kts 92°
2026-05-05 11:52 51.15980 0.77450 17033 ft 372 kts 93°
2026-05-05 11:52 51.15865 0.81594 17618 ft 377 kts 93°
2026-05-05 11:53 51.15748 0.85788 18201 ft 380 kts 93°
2026-05-05 11:53 51.15630 0.90016 18796 ft 383 kts 93°
2026-05-05 11:53 51.15512 0.94214 19368 ft 387 kts 93°
2026-05-05 11:53 51.15391 0.98512 19916 ft 390 kts 94°
2026-05-05 11:54 51.15267 1.02844 20451 ft 393 kts 94°
2026-05-05 11:54 51.15140 1.07212 20970 ft 397 kts 94°
2026-05-05 11:54 51.15010 1.11618 21477 ft 400 kts 94°
2026-05-05 11:54 51.14878 1.16063 21990 ft 403 kts 94°
2026-05-05 11:55 51.14744 1.20537 22476 ft 406 kts 94°
2026-05-05 11:55 51.14606 1.25040 22952 ft 409 kts 94°
2026-05-05 11:55 51.14466 1.29573 23411 ft 412 kts 95°
2026-05-05 11:55 51.14324 1.34137 23846 ft 415 kts 95°
2026-05-05 11:56 51.14178 1.38748 24273 ft 418 kts 95°
2026-05-05 11:56 51.14030 1.43378 24684 ft 420 kts 95°
2026-05-05 11:56 51.13881 1.47980 25071 ft 423 kts 95°
2026-05-05 11:56 51.13727 1.52677 25448 ft 426 kts 95°
2026-05-05 11:57 51.13570 1.57402 25819 ft 429 kts 95°
2026-05-05 11:57 51.13410 1.62161 26181 ft 432 kts 95°
2026-05-05 11:57 51.13247 1.66936 26525 ft 435 kts 95°
2026-05-05 11:57 51.13081 1.71765 26870 ft 437 kts 95°
2026-05-05 11:58 51.12912 1.76609 27213 ft 439 kts 95°
2026-05-05 11:58 51.12740 1.81475 27535 ft 442 kts 96°
2026-05-05 11:58 51.12565 1.86373 27848 ft 444 kts 96°
2026-05-05 11:58 51.12387 1.91300 28155 ft 447 kts 96°
2026-05-05 11:59 51.12209 1.96172 28459 ft 449 kts 96°
2026-05-05 11:59 51.12025 2.01149 28751 ft 451 kts 96°
2026-05-05 11:59 51.11839 2.06146 28983 ft 455 kts 96°
2026-05-05 11:59 51.11647 2.11186 29219 ft 458 kts 96°
2026-05-05 12:00 51.11454 2.16251 29497 ft 459 kts 96°
2026-05-05 12:00 51.11257 2.21330 29785 ft 461 kts 96°
2026-05-05 12:00 51.11059 2.26420 30076 ft 462 kts 97°
2026-05-05 12:00 51.10858 2.31520 30421 ft 461 kts 97°
2026-05-05 12:01 51.10656 2.36588 30933 ft 455 kts 97°
2026-05-05 12:01 51.10457 2.41568 31600 ft 446 kts 97°
2026-05-05 12:01 51.10260 2.46405 31978 ft 445 kts 97°
2026-05-05 12:01 51.10054 2.51340 32082 ft 450 kts 97°
2026-05-05 12:02 51.09846 2.56324 32256 ft 452 kts 98°
2026-05-05 12:02 51.09636 2.61303 32577 ft 451 kts 98°
2026-05-05 12:02 51.09304 2.66251 32899 ft 446 kts 105°
2026-05-05 12:02 51.08563 2.70976 33182 ft 443 kts 110°
2026-05-05 12:03 51.07697 2.75677 33402 ft 443 kts 111°
2026-05-05 12:03 51.06805 2.80360 33646 ft 443 kts 111°
2026-05-05 12:03 51.05915 2.85045 33916 ft 442 kts 111°
2026-05-05 12:03 51.05047 2.89668 34161 ft 443 kts 111°
2026-05-05 12:04 51.04175 2.94362 34402 ft 443 kts 111°
2026-05-05 12:04 51.03310 2.99057 34642 ft 443 kts 111°
2026-05-05 12:04 51.02447 3.03751 34836 ft 444 kts 111°
2026-05-05 12:04 51.01581 3.08466 34935 ft 446 kts 111°
2026-05-05 12:05 50.99829 3.17960 34940 ft 448 kts 111°
2026-05-05 12:05 50.98083 3.27394 34925 ft 442 kts 111°
2026-05-05 12:06 50.96342 3.36727 34927 ft 441 kts 111°
2026-05-05 12:06 50.94609 3.45967 34927 ft 440 kts 111°
2026-05-05 12:07 50.92863 3.55244 34922 ft 439 kts 111°
2026-05-05 12:07 50.91107 3.64520 34918 ft 439 kts 111°
2026-05-05 12:08 50.89341 3.73710 34919 ft 439 kts 112°
2026-05-05 12:08 50.87549 3.82960 34914 ft 440 kts 112°
2026-05-05 12:09 50.85744 3.92244 34906 ft 441 kts 112°
2026-05-05 12:09 50.83934 4.01521 34913 ft 441 kts 112°
2026-05-05 12:10 50.82115 4.10798 34905 ft 442 kts 112°
2026-05-05 12:10 50.80290 4.20070 34909 ft 442 kts 112°
2026-05-05 12:11 50.78468 4.29277 34907 ft 442 kts 112°
2026-05-05 12:11 50.76626 4.38539 34906 ft 442 kts 112°
2026-05-05 12:12 50.74780 4.47784 34907 ft 441 kts 112°
2026-05-05 12:12 50.72929 4.57014 34906 ft 441 kts 112°
2026-05-05 12:13 50.71098 4.66251 34905 ft 441 kts 112°
2026-05-05 12:13 50.69327 4.75456 34895 ft 441 kts 112°
2026-05-05 12:14 50.67533 4.84704 34899 ft 441 kts 112°
2026-05-05 12:14 50.65604 4.93834 34892 ft 436 kts 119°
2026-05-05 12:15 50.63037 5.02459 34888 ft 434 kts 121°
2026-05-05 12:15 50.60380 5.10988 34887 ft 434 kts 121°
2026-05-05 12:16 50.57769 5.19482 34893 ft 434 kts 121°
2026-05-05 12:16 50.55156 5.28060 34889 ft 435 kts 121°
2026-05-05 12:17 50.52547 5.36636 34888 ft 435 kts 121°
2026-05-05 12:17 50.49934 5.45196 34889 ft 434 kts 121°
2026-05-05 12:18 50.47316 5.53741 34892 ft 434 kts 121°
2026-05-05 12:18 50.44712 5.62206 34882 ft 433 kts 121°
2026-05-05 12:19 50.42092 5.70697 34890 ft 432 kts 121°
2026-05-05 12:19 50.39468 5.79170 34877 ft 431 kts 122°
2026-05-05 12:20 50.36845 5.87608 34885 ft 430 kts 122°
2026-05-05 12:20 50.34241 5.95959 34874 ft 429 kts 122°
2026-05-05 12:21 50.31622 6.04329 34882 ft 428 kts 122°
2026-05-05 12:21 50.29003 6.12669 34868 ft 427 kts 122°
2026-05-05 12:22 50.26380 6.20998 34859 ft 427 kts 122°
2026-05-05 12:22 50.23755 6.29304 34852 ft 427 kts 122°
2026-05-05 12:23 50.21139 6.37559 34851 ft 427 kts 122°
2026-05-05 12:23 50.18583 6.45929 34837 ft 432 kts 116°
2026-05-05 12:24 50.16970 6.55050 34841 ft 438 kts 110°
2026-05-05 12:24 50.15520 6.64292 34847 ft 439 kts 110°
2026-05-05 12:25 50.14038 6.73541 34841 ft 441 kts 110°
2026-05-05 12:25 50.12515 6.82811 34845 ft 442 kts 110°
2026-05-05 12:26 50.10968 6.92115 34854 ft 444 kts 110°
2026-05-05 12:26 50.09418 7.01381 34854 ft 446 kts 110°
2026-05-05 12:27 50.07842 7.10748 34847 ft 448 kts 110°
2026-05-05 12:27 50.06256 7.20139 34846 ft 449 kts 110°
2026-05-05 12:28 50.04659 7.29540 34847 ft 450 kts 110°
2026-05-05 12:28 50.03061 7.38897 34857 ft 451 kts 110°
2026-05-05 12:29 50.01444 7.48313 34861 ft 451 kts 111°
2026-05-05 12:29 49.99820 7.57721 34860 ft 451 kts 111°
2026-05-05 12:30 49.98189 7.67118 34863 ft 450 kts 111°
2026-05-05 12:30 49.96558 7.76469 34859 ft 448 kts 111°
2026-05-05 12:31 49.94930 7.85746 34844 ft 448 kts 111°
2026-05-05 12:31 49.93288 7.95059 34849 ft 447 kts 111°
2026-05-05 12:32 49.91642 8.04345 34847 ft 446 kts 111°
2026-05-05 12:32 49.89991 8.13608 34853 ft 445 kts 111°
2026-05-05 12:33 49.88337 8.22845 34854 ft 445 kts 111°
2026-05-05 12:33 49.86688 8.32016 34852 ft 445 kts 111°
2026-05-05 12:34 49.84519 8.40874 34847 ft 433 kts 127°
2026-05-05 12:34 49.80830 8.48007 34845 ft 420 kts 143°
2026-05-05 12:35 49.76510 8.54111 34843 ft 421 kts 142°
2026-05-05 12:35 49.71922 8.59583 34848 ft 412 kts 157°
2026-05-05 12:36 49.66589 8.62486 34853 ft 404 kts 173°
2026-05-05 12:36 49.61077 8.63940 34855 ft 405 kts 174°
2026-05-05 12:37 49.55509 8.65426 34849 ft 407 kts 173°
2026-05-05 12:37 49.49919 8.66974 34855 ft 409 kts 173°
2026-05-05 12:38 49.44401 8.69262 34856 ft 416 kts 160°
2026-05-05 12:38 49.39129 8.72991 34858 ft 418 kts 159°
2026-05-05 12:39 49.33888 8.76698 34856 ft 418 kts 160°
2026-05-05 12:39 49.28594 8.80381 34852 ft 417 kts 160°
2026-05-05 12:40 49.23302 8.84040 34851 ft 417 kts 160°
2026-05-05 12:40 49.18016 8.87686 34852 ft 417 kts 160°
2026-05-05 12:41 49.12730 8.91321 34852 ft 416 kts 160°
2026-05-05 12:41 49.07490 8.94918 34851 ft 416 kts 160°
2026-05-05 12:42 49.02218 8.98530 34852 ft 415 kts 160°
2026-05-05 12:42 48.96947 9.02133 34851 ft 415 kts 160°
2026-05-05 12:43 48.91683 9.05722 34852 ft 415 kts 160°
2026-05-05 12:43 48.86413 9.09307 34855 ft 414 kts 160°
2026-05-05 12:44 48.81150 9.12880 34852 ft 414 kts 160°
2026-05-05 12:44 48.75919 9.16423 34852 ft 414 kts 160°
2026-05-05 12:45 48.70656 9.19979 34863 ft 414 kts 160°
2026-05-05 12:45 48.65393 9.23529 34859 ft 414 kts 160°
2026-05-05 12:46 48.60104 9.26988 34859 ft 414 kts 162°
2026-05-05 12:46 48.54713 9.30006 34867 ft 413 kts 164°
2026-05-05 12:47 48.49337 9.32939 34861 ft 414 kts 164°
2026-05-05 12:47 48.43922 9.35936 34855 ft 415 kts 163°
2026-05-05 12:48 48.38505 9.38951 34846 ft 415 kts 163°
2026-05-05 12:48 48.33094 9.41960 34856 ft 415 kts 163°
2026-05-05 12:49 48.28599 9.44451 34865 ft 414 kts 163°
2026-05-05 12:49 48.22719 9.49410 34862 ft 425 kts 146°
2026-05-05 12:50 48.18157 9.55073 34863 ft 426 kts 145°
2026-05-05 12:50 48.13606 9.60757 34861 ft 426 kts 145°
2026-05-05 12:51 48.09817 9.65439 34860 ft 426 kts 145°
2026-05-05 12:51 48.07526 9.68250 34860 ft 426 kts 146°
2026-05-05 12:52 48.03272 9.73452 34862 ft 426 kts 146°
2026-05-05 12:52 47.99455 9.78107 34858 ft 426 kts 146°
2026-05-05 12:53 47.94869 9.83688 34860 ft 426 kts 146°
2026-05-05 12:53 47.90275 9.89267 34861 ft 426 kts 146°
2026-05-05 12:54 47.83383 9.97611 34859 ft 426 kts 146°
2026-05-05 12:55 47.78815 10.03125 34858 ft 425 kts 146°
2026-05-05 12:55 47.74220 10.08661 34865 ft 425 kts 146°
2026-05-05 12:56 47.69620 10.14189 34860 ft 425 kts 146°
2026-05-05 12:56 47.65020 10.19704 34871 ft 425 kts 146°
2026-05-05 12:57 47.60411 10.25219 34864 ft 426 kts 146°
2026-05-05 12:57 47.55817 10.30679 34881 ft 426 kts 148°
2026-05-05 12:58 47.50925 10.35568 34882 ft 425 kts 152°
2026-05-05 12:58 47.45950 10.40301 34875 ft 426 kts 152°
2026-05-05 12:59 47.40976 10.45083 34890 ft 427 kts 151°
2026-05-05 12:59 47.35995 10.49902 34907 ft 429 kts 151°
2026-05-05 13:00 47.28475 10.57073 34890 ft 431 kts 155°
2026-05-05 13:01 47.17518 10.63910 34922 ft 429 kts 162°
2026-05-05 13:01 47.12022 10.67230 34926 ft 431 kts 162°
2026-05-05 13:02 47.06470 10.70616 34920 ft 433 kts 161°
2026-05-05 13:02 47.00906 10.74014 34928 ft 433 kts 162°
2026-05-05 13:03 46.95337 10.77407 34946 ft 434 kts 162°
2026-05-05 13:03 46.89751 10.80800 34951 ft 435 kts 162°
2026-05-05 13:04 46.84198 10.84166 34959 ft 435 kts 162°
2026-05-05 13:04 46.78598 10.87554 34956 ft 436 kts 161°
2026-05-05 13:05 46.73274 10.91887 34969 ft 441 kts 151°
2026-05-05 13:05 46.68137 10.96780 34961 ft 442 kts 151°
2026-05-05 13:06 46.62984 11.01659 34970 ft 441 kts 151°
2026-05-05 13:06 46.57814 11.06491 34970 ft 441 kts 152°
2026-05-05 13:07 46.52686 11.11254 34979 ft 440 kts 152°
2026-05-05 13:07 46.47526 11.16033 34998 ft 440 kts 152°
2026-05-05 13:08 46.42362 11.20807 34994 ft 441 kts 151°
2026-05-05 13:08 46.37185 11.25583 35005 ft 441 kts 152°
2026-05-05 13:09 46.32009 11.30349 35009 ft 442 kts 151°
2026-05-05 13:09 46.26843 11.35094 35015 ft 443 kts 151°
2026-05-05 13:10 46.21735 11.40114 35018 ft 445 kts 148°
2026-05-05 13:10 46.16714 11.45383 35021 ft 447 kts 147°
2026-05-05 13:11 46.11678 11.50633 35026 ft 448 kts 148°
2026-05-05 13:11 46.06595 11.55869 35023 ft 449 kts 148°
2026-05-05 13:12 46.01538 11.61054 35033 ft 450 kts 148°
2026-05-05 13:12 45.96435 11.66279 35026 ft 450 kts 148°
2026-05-05 13:13 45.91402 11.71611 35030 ft 450 kts 144°
2026-05-05 13:13 45.86554 11.77331 35027 ft 451 kts 143°
2026-05-05 13:14 45.81744 11.83101 35030 ft 451 kts 143°
2026-05-05 13:14 45.76953 11.88792 35025 ft 451 kts 143°
2026-05-05 13:15 45.72111 11.94491 35025 ft 450 kts 144°
2026-05-05 13:15 45.67262 12.00170 35018 ft 450 kts 144°
2026-05-05 13:16 45.62416 12.05831 35017 ft 450 kts 144°
2026-05-05 13:16 45.57566 12.11484 35017 ft 450 kts 144°
2026-05-05 13:17 45.52716 12.17126 35019 ft 450 kts 144°
2026-05-05 13:17 45.47899 12.22716 35023 ft 450 kts 144°
2026-05-05 13:18 45.43045 12.28338 35024 ft 450 kts 144°
2026-05-05 13:18 45.38190 12.33948 35019 ft 450 kts 144°
2026-05-05 13:19 45.33324 12.39555 35015 ft 450 kts 144°
2026-05-05 13:19 45.28455 12.45156 35016 ft 451 kts 144°
2026-05-05 13:20 45.23611 12.50713 35020 ft 451 kts 144°
2026-05-05 13:20 45.18722 12.56309 35017 ft 452 kts 144°
2026-05-05 13:21 45.13817 12.61912 35009 ft 453 kts 144°
2026-05-05 13:21 45.08905 12.67510 35014 ft 454 kts 144°
2026-05-05 13:22 45.04015 12.73070 35010 ft 455 kts 144°
2026-05-05 13:22 44.99086 12.78662 35011 ft 455 kts 144°
2026-05-05 13:23 44.94141 12.84260 35006 ft 455 kts 144°
2026-05-05 13:23 44.89195 12.89846 35011 ft 456 kts 144°
2026-05-05 13:24 44.84275 12.95389 35000 ft 456 kts 144°
2026-05-05 13:24 44.79317 13.00963 35001 ft 456 kts 145°
2026-05-05 13:25 44.74355 13.06530 35005 ft 456 kts 145°
2026-05-05 13:25 44.69389 13.12087 35003 ft 456 kts 145°
2026-05-05 13:26 44.64429 13.17626 35018 ft 455 kts 145°
2026-05-05 13:26 44.59506 13.23110 35027 ft 455 kts 145°
2026-05-05 13:27 44.54551 13.28618 35028 ft 454 kts 145°
2026-05-05 13:27 44.49598 13.34112 35028 ft 454 kts 145°
2026-05-05 13:28 44.44649 13.39589 35029 ft 454 kts 145°
2026-05-05 13:28 44.39723 13.45030 35033 ft 454 kts 145°
2026-05-05 13:29 44.34764 13.50493 35027 ft 454 kts 145°
2026-05-05 13:29 44.29799 13.55950 35029 ft 454 kts 145°
2026-05-05 13:30 44.24835 13.61395 35028 ft 454 kts 145°
2026-05-05 13:30 44.19858 13.66843 35033 ft 455 kts 145°
2026-05-05 13:31 44.14918 13.72238 35037 ft 455 kts 145°
2026-05-05 13:31 44.09934 13.77669 35038 ft 455 kts 145°
2026-05-05 13:32 44.04949 13.83089 35030 ft 455 kts 145°
2026-05-05 13:32 43.99960 13.88501 35028 ft 455 kts 145°
2026-05-05 13:33 43.94964 13.93910 35028 ft 455 kts 145°
2026-05-05 13:33 43.90002 13.99270 35028 ft 455 kts 146°
2026-05-05 13:34 43.85005 14.04656 35042 ft 455 kts 146°
2026-05-05 13:34 43.80006 14.10033 35048 ft 455 kts 146°
2026-05-05 13:35 43.75006 14.15398 35045 ft 455 kts 146°
2026-05-05 13:35 43.70041 14.20715 35048 ft 455 kts 146°
2026-05-05 13:36 43.65041 14.26058 35056 ft 455 kts 146°
2026-05-05 13:36 43.60032 14.31399 35054 ft 455 kts 146°
2026-05-05 13:37 43.55017 14.36734 35057 ft 455 kts 146°
2026-05-05 13:37 43.49999 14.42060 35057 ft 456 kts 146°
2026-05-05 13:38 43.45001 14.47354 35055 ft 456 kts 146°
2026-05-05 13:38 43.39965 14.52678 35055 ft 457 kts 146°
2026-05-05 13:39 43.34917 14.58002 35057 ft 458 kts 146°
2026-05-05 13:39 43.29864 14.63321 35054 ft 458 kts 146°
2026-05-05 13:40 43.24832 14.68607 35056 ft 459 kts 147°
2026-05-05 13:40 43.19761 14.73921 35056 ft 459 kts 147°
2026-05-05 13:41 43.14678 14.79237 35061 ft 460 kts 147°
2026-05-05 13:41 43.09590 14.84546 35068 ft 460 kts 147°
2026-05-05 13:42 43.04498 14.89848 35068 ft 460 kts 147°
2026-05-05 13:42 42.99433 14.95110 35067 ft 461 kts 147°
2026-05-05 13:43 42.94326 15.00406 35064 ft 461 kts 147°
2026-05-05 13:43 42.89208 15.05701 35054 ft 462 kts 147°
2026-05-05 13:44 42.84085 15.10991 35062 ft 462 kts 147°
2026-05-05 13:44 42.78994 15.16236 35069 ft 462 kts 147°
2026-05-05 13:45 42.73854 15.21520 35062 ft 463 kts 147°
2026-05-05 13:45 42.68718 15.26789 35064 ft 463 kts 148°
2026-05-05 13:46 42.63572 15.32057 35065 ft 463 kts 148°
2026-05-05 13:46 42.58454 15.37286 35063 ft 464 kts 148°
2026-05-05 13:47 42.53289 15.42550 35071 ft 464 kts 148°
2026-05-05 13:47 42.48126 15.47804 35072 ft 464 kts 148°
2026-05-05 13:48 42.42955 15.53052 35073 ft 465 kts 148°
2026-05-05 13:48 42.37774 15.58300 35073 ft 465 kts 148°
2026-05-05 13:49 42.32622 15.63507 35069 ft 466 kts 148°
2026-05-05 13:49 42.27422 15.68752 35069 ft 467 kts 148°
2026-05-05 13:50 42.22208 15.74000 35078 ft 468 kts 148°
2026-05-05 13:50 42.16987 15.79245 35075 ft 468 kts 149°
2026-05-05 13:51 42.11798 15.84447 35076 ft 468 kts 149°
2026-05-05 13:51 42.06566 15.89681 35075 ft 469 kts 149°
2026-05-05 13:52 42.01328 15.94910 35078 ft 469 kts 149°
2026-05-05 13:52 41.96085 16.00135 35072 ft 469 kts 149°
2026-05-05 13:53 41.90848 16.05377 35073 ft 471 kts 146°
2026-05-05 13:53 41.85837 16.11065 35073 ft 472 kts 143°
2026-05-05 13:54 41.80952 16.16868 35074 ft 472 kts 143°
2026-05-05 13:54 41.76026 16.22686 35078 ft 472 kts 144°
2026-05-05 13:55 41.71076 16.28463 35069 ft 472 kts 144°
2026-05-05 13:55 41.66117 16.34213 35081 ft 472 kts 144°
2026-05-05 13:56 41.61149 16.39958 35076 ft 472 kts 144°
2026-05-05 13:56 41.56211 16.45657 35086 ft 473 kts 144°
2026-05-05 13:57 41.51227 16.51400 35082 ft 474 kts 143°
2026-05-05 13:57 41.46229 16.57146 35085 ft 475 kts 143°
2026-05-05 13:58 41.41220 16.62893 35077 ft 476 kts 143°
2026-05-05 13:58 41.36196 16.68645 35081 ft 477 kts 143°
2026-05-05 13:59 41.28658 16.77253 35076 ft 479 kts 143°
2026-05-05 14:00 41.21913 16.84933 35081 ft 481 kts 143°
2026-05-05 14:00 41.15966 16.91687 35066 ft 482 kts 143°
2026-05-05 14:01 41.10897 16.97429 35075 ft 483 kts 143°
2026-05-05 14:01 41.05782 17.03212 35089 ft 483 kts 143°
2026-05-05 14:02 41.00661 17.08990 35086 ft 484 kts 143°
2026-05-05 14:02 40.95527 17.14769 35082 ft 485 kts 143°
2026-05-05 14:03 40.90388 17.20542 35096 ft 485 kts 143°
2026-05-05 14:03 40.85279 17.26270 35098 ft 485 kts 143°
2026-05-05 14:04 40.80129 17.32031 35101 ft 485 kts 143°
2026-05-05 14:04 40.74979 17.37781 35099 ft 485 kts 143°
2026-05-05 14:05 40.69821 17.43526 35101 ft 485 kts 143°
2026-05-05 14:05 40.64704 17.49214 35101 ft 485 kts 143°
2026-05-05 14:06 40.59549 17.54933 35100 ft 484 kts 142°
2026-05-05 14:06 40.54395 17.60638 35101 ft 484 kts 142°
2026-05-05 14:07 40.49238 17.66335 35096 ft 484 kts 142°
2026-05-05 14:07 40.44082 17.72020 35096 ft 484 kts 142°
2026-05-05 14:08 40.38952 17.77663 35090 ft 484 kts 142°
2026-05-05 14:08 40.33783 17.83338 35096 ft 485 kts 142°
2026-05-05 14:09 40.28606 17.89010 35095 ft 485 kts 142°
2026-05-05 14:09 40.23428 17.94672 35103 ft 485 kts 142°
2026-05-05 14:10 40.18239 18.00333 35100 ft 486 kts 142°
2026-05-05 14:10 40.13079 18.05951 35105 ft 486 kts 142°
2026-05-05 14:11 40.07881 18.11599 35101 ft 487 kts 142°
2026-05-05 14:11 40.02669 18.17252 35101 ft 487 kts 142°
2026-05-05 14:12 39.97453 18.22896 35104 ft 487 kts 142°
2026-05-05 14:12 39.92232 18.28535 35104 ft 487 kts 142°
2026-05-05 14:13 39.87045 18.34125 35099 ft 487 kts 142°
2026-05-05 14:13 39.81827 18.39738 35100 ft 487 kts 142°
2026-05-05 14:14 39.76606 18.45342 35102 ft 486 kts 142°
2026-05-05 14:14 39.71389 18.50931 35102 ft 486 kts 142°
2026-05-05 14:15 39.66206 18.56472 35100 ft 485 kts 142°
2026-05-05 14:15 39.60992 18.62036 35106 ft 485 kts 142°
2026-05-05 14:16 39.55785 18.67581 35106 ft 484 kts 142°
2026-05-05 14:16 39.50576 18.73119 35114 ft 484 kts 142°
2026-05-05 14:17 39.45442 18.78757 35106 ft 485 kts 137°
2026-05-05 14:17 39.40711 18.84982 35115 ft 485 kts 134°
2026-05-05 14:18 39.36059 18.91217 35107 ft 485 kts 135°
2026-05-05 14:18 39.31318 18.97420 35117 ft 485 kts 136°
2026-05-05 14:19 39.26563 19.03605 35121 ft 485 kts 135°
2026-05-05 14:19 39.21813 19.09794 35123 ft 486 kts 135°
2026-05-05 14:20 39.17059 19.15983 35100 ft 486 kts 135°
2026-05-05 14:20 39.14705 19.19042 34741 ft 488 kts 135°
2026-05-05 14:20 39.12328 19.22128 34368 ft 482 kts 135°
2026-05-05 14:21 39.09980 19.25173 33957 ft 478 kts 135°
2026-05-05 14:21 39.07644 19.28200 33549 ft 474 kts 135°
2026-05-05 14:21 39.05327 19.31199 33136 ft 471 kts 135°
2026-05-05 14:21 39.03023 19.34177 32709 ft 468 kts 135°
2026-05-05 14:22 39.00732 19.37136 32311 ft 465 kts 135°
2026-05-05 14:22 38.98455 19.40073 31902 ft 462 kts 135°
2026-05-05 14:22 38.96189 19.42994 31499 ft 460 kts 135°
2026-05-05 14:22 38.93942 19.45887 31098 ft 457 kts 135°
2026-05-05 14:23 38.91732 19.48731 30703 ft 454 kts 135°
2026-05-05 14:23 38.89505 19.51593 30305 ft 452 kts 134°
2026-05-05 14:23 38.87287 19.54441 29911 ft 449 kts 134°
2026-05-05 14:23 38.85085 19.57266 29512 ft 447 kts 134°
2026-05-05 14:24 38.82892 19.60076 29099 ft 444 kts 134°
2026-05-05 14:24 38.80712 19.62869 28693 ft 441 kts 134°
2026-05-05 14:24 38.78549 19.65636 28293 ft 439 kts 134°
2026-05-05 14:24 38.76396 19.68388 27883 ft 436 kts 134°
2026-05-05 14:25 38.74255 19.71123 27481 ft 433 kts 134°
2026-05-05 14:25 38.72125 19.73841 27080 ft 431 kts 134°
2026-05-05 14:25 38.70036 19.76503 26685 ft 428 kts 134°
2026-05-05 14:25 38.67936 19.79178 26298 ft 425 kts 134°
2026-05-05 14:26 38.65853 19.81829 25926 ft 418 kts 134°
2026-05-05 14:26 38.63801 19.84438 25405 ft 414 kts 134°
2026-05-05 14:26 38.61760 19.87032 24840 ft 412 kts 134°
2026-05-05 14:26 38.59733 19.89606 24300 ft 409 kts 134°
2026-05-05 14:27 38.57726 19.92151 23786 ft 403 kts 134°
2026-05-05 14:27 38.55744 19.94663 23205 ft 400 kts 134°
2026-05-05 14:27 38.53779 19.97152 22632 ft 396 kts 134°
2026-05-05 14:27 38.51862 19.99578 22097 ft 391 kts 134°
2026-05-05 14:28 38.49936 20.02015 21535 ft 388 kts 134°
2026-05-05 14:28 38.48030 20.04424 20993 ft 383 kts 134°
2026-05-05 14:28 38.46143 20.06806 20484 ft 379 kts 134°
2026-05-05 14:28 38.44292 20.09140 20118 ft 371 kts 134°
2026-05-05 14:29 38.42293 20.11170 19703 ft 366 kts 154°
2026-05-05 14:29 38.39926 20.12161 19330 ft 354 kts 175°
2026-05-05 14:29 38.37514 20.12162 18957 ft 342 kts 194°
2026-05-05 14:29 38.35216 20.11529 18605 ft 336 kts 198°
2026-05-05 14:30 38.32946 20.10798 18238 ft 337 kts 199°
2026-05-05 14:30 38.30663 20.10041 17883 ft 342 kts 198°
2026-05-05 14:30 38.28382 20.09290 17518 ft 345 kts 198°
2026-05-05 14:30 38.26051 20.08535 17147 ft 346 kts 198°
2026-05-05 14:31 38.23723 20.07793 16771 ft 344 kts 198°
2026-05-05 14:31 38.21399 20.07059 16405 ft 343 kts 197°
2026-05-05 14:31 38.19088 20.06334 16024 ft 342 kts 197°
2026-05-05 14:31 38.16781 20.05611 15642 ft 339 kts 197°
2026-05-05 14:32 38.14508 20.04902 15260 ft 334 kts 197°
2026-05-05 14:32 38.12267 20.04203 14881 ft 329 kts 197°
2026-05-05 14:32 38.10058 20.03514 14499 ft 325 kts 197°
2026-05-05 14:32 38.07877 20.02834 14122 ft 321 kts 197°
2026-05-05 14:33 38.05754 20.02171 13750 ft 317 kts 197°
2026-05-05 14:33 38.03625 20.01508 13374 ft 313 kts 196°
2026-05-05 14:33 38.01517 20.00852 12997 ft 310 kts 196°
2026-05-05 14:33 37.99433 20.00204 12621 ft 307 kts 196°
2026-05-05 14:34 37.97335 19.99885 12205 ft 306 kts 172°
2026-05-05 14:34 37.95411 20.00879 11850 ft 298 kts 139°
2026-05-05 14:34 37.94226 20.02921 11516 ft 284 kts 105°
2026-05-05 14:34 37.94108 20.05313 11176 ft 268 kts 71°
2026-05-05 14:35 37.94986 20.07255 10868 ft 254 kts 44°
2026-05-05 14:35 37.96162 20.08890 10554 ft 249 kts 48°
2026-05-05 14:35 37.97165 20.10668 10219 ft 247 kts 57°
2026-05-05 14:35 37.97984 20.12570 9880 ft 244 kts 59°
2026-05-05 14:36 37.98513 20.14584 9542 ft 243 kts 90°
2026-05-05 14:36 37.97991 20.16580 9320 ft 244 kts 129°
2026-05-05 14:36 37.96596 20.17752 9072 ft 245 kts 168°
2026-05-05 14:36 37.94925 20.17600 8831 ft 245 kts 203°
2026-05-05 14:37 37.93486 20.16525 8621 ft 245 kts 221°
2026-05-05 14:37 37.92399 20.14881 8372 ft 244 kts 242°
2026-05-05 14:37 37.91693 20.12944 8132 ft 241 kts 248°
2026-05-05 14:37 37.91060 20.10979 7873 ft 241 kts 249°
2026-05-05 14:38 37.90425 20.09022 7621 ft 240 kts 249°
2026-05-05 14:38 37.89786 20.07079 7378 ft 239 kts 249°
2026-05-05 14:38 37.89426 20.05061 7093 ft 236 kts 275°
2026-05-05 14:38 37.89863 20.03101 6856 ft 231 kts 301°
2026-05-05 14:39 37.90911 20.01628 6601 ft 229 kts 327°
2026-05-05 14:39 37.92375 20.00915 6355 ft 227 kts 354°
2026-05-05 14:39 37.93926 20.01170 6109 ft 227 kts 20°
2026-05-05 14:39 37.95255 20.02221 5878 ft 226 kts 43°
2026-05-05 14:40 37.96162 20.03834 5673 ft 226 kts 63°
2026-05-05 14:40 37.96795 20.05648 5488 ft 225 kts 66°
2026-05-05 14:40 37.97392 20.07476 5282 ft 224 kts 66°
2026-05-05 14:40 37.97990 20.09300 5081 ft 225 kts 66°
2026-05-05 14:41 37.98605 20.11158 4897 ft 234 kts 66°
2026-05-05 14:41 37.99228 20.13077 4727 ft 243 kts 66°
2026-05-05 14:41 37.99873 20.15079 4534 ft 246 kts 66°
2026-05-05 14:41 38.00519 20.17075 4324 ft 244 kts 66°
2026-05-05 14:42 38.01159 20.19054 4147 ft 240 kts 66°
2026-05-05 14:42 38.01786 20.20992 4005 ft 236 kts 66°
2026-05-05 14:42 38.02410 20.22916 3887 ft 237 kts 66°
2026-05-05 14:42 38.03036 20.24848 3774 ft 237 kts 67°
2026-05-05 14:43 38.03362 20.26888 3613 ft 239 kts 93°
2026-05-05 14:43 38.02923 20.28890 3487 ft 235 kts 122°
2026-05-05 14:43 38.01860 20.30402 3362 ft 227 kts 142°
2026-05-05 14:43 38.00614 20.31571 3218 ft 220 kts 146°
2026-05-05 14:44 37.99422 20.32695 3136 ft 215 kts 142°
2026-05-05 14:44 37.98297 20.33951 3039 ft 216 kts 137°
2026-05-05 14:44 37.97279 20.35332 3001 ft 213 kts 131°
2026-05-05 14:44 37.96378 20.36805 2993 ft 212 kts 126°
2026-05-05 14:45 37.95569 20.38379 3003 ft 215 kts 121°
2026-05-05 14:45 37.94847 20.40048 3011 ft 216 kts 117°
2026-05-05 14:45 37.94229 20.41786 2997 ft 216 kts 112°
2026-05-05 14:45 37.93728 20.43574 2989 ft 215 kts 107°
2026-05-05 14:46 37.93350 20.45377 2990 ft 213 kts 102°
2026-05-05 14:46 37.93095 20.47172 2974 ft 200 kts 97°
2026-05-05 14:46 37.92965 20.48864 2989 ft 188 kts 93°
2026-05-05 14:46 37.92934 20.50511 3001 ft 186 kts 89°
2026-05-05 14:47 37.92989 20.52139 3010 ft 185 kts 85°
2026-05-05 14:47 37.93127 20.53764 3004 ft 186 kts 81°
2026-05-05 14:47 37.93352 20.55375 2996 ft 186 kts 77°
2026-05-05 14:47 37.93666 20.56964 2989 ft 186 kts 72°
2026-05-05 14:48 37.94062 20.58499 2981 ft 186 kts 68°
2026-05-05 14:48 37.94547 20.60012 2986 ft 185 kts 65°
2026-05-05 14:48 37.95114 20.61465 2980 ft 184 kts 52°
2026-05-05 14:48 37.96094 20.62411 2997 ft 176 kts 17°
2026-05-05 14:49 37.97286 20.62552 2996 ft 172 kts 347°
2026-05-05 14:49 37.98363 20.61953 3001 ft 171 kts 322°
2026-05-05 14:49 37.99345 20.61073 2978 ft 174 kts 323°
2026-05-05 14:49 38.00336 20.60195 2736 ft 170 kts 323°
2026-05-05 14:50 38.01271 20.59360 2490 ft 160 kts 323°
2026-05-05 14:50 38.02144 20.58579 2250 ft 151 kts 322°
2026-05-05 14:50 38.02979 20.57831 2073 ft 145 kts 323°
2026-05-05 14:50 38.03802 20.57103 1877 ft 144 kts 323°
2026-05-05 14:51 38.04629 20.56373 1693 ft 145 kts 323°
2026-05-05 14:51 38.05457 20.55641 1508 ft 145 kts 323°
2026-05-05 14:51 38.06284 20.54910 1319 ft 145 kts 323°
2026-05-05 14:51 38.07108 20.54182 1133 ft 144 kts 323°
2026-05-05 14:52 38.07930 20.53454 932 ft 144 kts 323°
2026-05-05 14:52 38.08752 20.52757 719 ft 144 kts 325°
2026-05-05 14:52 38.09593 20.52075 521 ft 143 kts 325°
2026-05-05 14:52 38.10426 20.51373 293 ft 144 kts 324°
2026-05-05 14:53 38.11264 20.50674 95 ft 144 kts 325°
2026-05-05 14:53 38.11964 20.50077 67 ft 89 kts 326°
2026-05-05 14:53 38.12339 20.49761 60 ft 40 kts 326°
2026-05-05 14:53 38.12554 20.49580 52 ft 34 kts 326°
2026-05-05 14:54 38.12732 20.49430 46 ft 20 kts 326°
2026-05-05 14:54 38.12828 20.49345 42 ft 10 kts 315°
2026-05-05 14:54 38.12856 20.49270 41 ft 9 kts 311°
2026-05-05 14:54 38.12896 20.49296 40 ft 9 kts 106°
2026-05-05 14:55 38.12850 20.49340 42 ft 8 kts 149°
2026-05-05 14:55 38.12801 20.49377 43 ft 8 kts 149°
2026-05-05 14:55 38.12755 20.49414 45 ft 8 kts 146°
2026-05-05 14:55 38.12711 20.49452 46 ft 8 kts 146°
2026-05-05 14:56 38.12668 20.49489 48 ft 7 kts 146°
2026-05-05 14:56 38.12626 20.49524 49 ft 7 kts 147°
2026-05-05 14:56 38.12586 20.49557 51 ft 7 kts 147°
2026-05-05 14:56 38.12547 20.49590 52 ft 7 kts 146°
2026-05-05 14:57 38.12508 20.49623 54 ft 7 kts 146°
2026-05-05 14:57 38.12470 20.49655 55 ft 7 kts 146°
2026-05-05 14:57 38.12431 20.49687 57 ft 7 kts 146°
2026-05-05 14:57 38.12387 20.49725 58 ft 8 kts 146°
2026-05-05 14:58 38.12334 20.49770 60 ft 10 kts 146°
2026-05-05 14:58 38.12272 20.49823 62 ft 12 kts 147°
2026-05-05 14:58 38.12199 20.49884 64 ft 14 kts 147°
2026-05-05 14:58 38.12115 20.49954 65 ft 15 kts 146°
2026-05-05 14:59 38.12020 20.50034 67 ft 17 kts 146°
2026-05-05 14:59 38.11932 20.50109 67 ft 13 kts 145°
2026-05-05 14:59 38.11891 20.50188 67 ft 9 kts 99°
2026-05-05 14:59 38.11893 20.50267 67 ft 9 kts 89°
2026-05-05 15:00 38.11859 20.50328 67 ft 9 kts 145°
2026-05-05 15:00 38.11831 20.50354 67 ft 7 kts 140°
2026-05-05 15:00 38.11840 20.50423 67 ft 6 kts 57°
2026-05-05 15:00 38.11855 20.50450 67 ft 2 kts 56°
2026-05-05 15:01 38.11858 20.50456 67 ft 0 kts 56°